Location: Recife
(8.0585°S, 34.8848°W)
Time: 12:42:10
(UTC-03:00)

Vanguard 2 Rocket - Pass Details

Date: 18 April 2026
Orbit: 553 x 3286 km, 32.9° (Epoch: 7 May)

Event Time Altitude Azimuth Distance (km) Brightness Sun altitude
Rises 08:25:37 0° 235° (SW) 4,917 10.2 42.9°
Reaches altitude 10° 08:29:29 10° 220° (SW) 4,345 10.1 43.8°
Maximum altitude 08:39:15 24° 170° (S) 4,167 10.4 46.0°
Drops below altitude 10° 08:52:36 10° 123° (ESE) 6,029 11.5 48.9°
Sets 08:59:27 0° 110° (ESE) 7,233 11.8 50.4°
